Location: Proctor
(47.8934°N, 114.3048°W)
Time: 08:33:01
(UTC+00:00)

Vanguard 2 Rocket - Pass Details

Date: 16 June 2024
Orbit: 555 x 3303 km, 32.9° (Epoch: 13 July)

Event Time Altitude Azimuth Distance (km) Brightness Sun altitude
Exits shadow 08:37:27 - 162° (SSE) 6,309 10.7 -17.5°
Reaches altitude 10° 08:38:14 10° 160° (SSE) 6,248 10.7 -17.5°
Maximum altitude 08:46:00 14° 137° (SE) 5,852 10.7 -17.1°
Drops below altitude 10° 08:53:21 10° 113° (ESE) 5,912 11.0 -16.8°
Sets 09:01:03 0° 92° (E) 6,473 11.5 -16.3°
